Satellite: ISS
Catalog number: 25544
Epoch time:      09049.90904766
Element set:    0301
Inclination:      051.6395 deg
RA of node:       192.6700 deg
Eccentricity:    0.0009226
Arg of perigee:   040.3884 deg
Mean anomaly:     099.9675 deg
Mean motion:   15.70973343 rev/day
Decay rate:      8.462e-05 rev/day^2
Epoch rev:           58734
Checksum:              329

Satellite: CO-58
Catalog number: 28895
Epoch time:      09050.37177532
Element set:     236
Inclination:      098.0750 deg
RA of node:       304.1925 deg
Eccentricity:    0.0017785
Arg of perigee:   000.1818 deg
Mean anomaly:     359.9362 deg
Mean motion:   14.59742687 rev/day
Decay rate:        2.5e-07 rev/day^2
Epoch rev:           17654
Checksum:              335

Satellite: FALCON
Catalog number: 30776
Epoch time:      09049.54254855
Element set:    0517
Inclination:      035.4335 deg
RA of node:       099.2079 deg
Eccentricity:    0.0001785
Arg of perigee:   327.4459 deg
Mean anomaly:     032.6147 deg
Mean motion:   15.03171400 rev/day
Decay rate:       3.69e-06 rev/day^2
Epoch rev:           10723
Checksum:              295

Satellite: MAST
Catalog number: 31126
Epoch time:      09048.45801306
Element set:    0531
Inclination:      098.0074 deg
RA of node:       108.6567 deg
Eccentricity:    0.0093602
Arg of perigee:   291.6848 deg
Mean anomaly:     067.4411 deg
Mean motion:   14.53477405 rev/day
Decay rate:       -4.6e-07 rev/day^2
Epoch rev:           09764
Checksum:              299

Satellite: CAPE1
Catalog number: 31130
Epoch time:      09049.82526855
Element set:    0533
Inclination:      098.0064 deg
RA of node:       108.4105 deg
Eccentricity:    0.0101700
Arg of perigee:   292.2080 deg
Mean anomaly:     066.8314 deg
Mean motion:   14.52033007 rev/day
Decay rate:      -1.38e-06 rev/day^2
Epoch rev:           09751
Checksum:              258

Satellite: COMPASS
Catalog number: 32787
Epoch time:      09050.85840237
Element set:     284
Inclination:      097.9575 deg
RA of node:       115.6024 deg
Eccentricity:    0.0017009
Arg of perigee:   056.3699 deg
Mean anomaly:     303.9115 deg
Mean motion:   14.81548717 rev/day
Decay rate:       -5.5e-07 rev/day^2
Epoch rev:            4407
Checksum:              312

Satellite: AAUSAT2
Catalog number: 32788
Epoch time:      09050.83588516
Element set:     285
Inclination:      097.9582 deg
RA of node:       115.6207 deg
Eccentricity:    0.0016678
Arg of perigee:   058.0441 deg
Mean anomaly:     302.2331 deg
Mean motion:   14.81668662 rev/day
Decay rate:        4.9e-07 rev/day^2
Epoch rev:            4407
Checksum:              315

Satellite: DO-64
Catalog number: 32789
Epoch time:      09050.71985478
Element set:     295
Inclination:      097.9622 deg
RA of node:       115.6006 deg
Eccentricity:    0.0016637
Arg of perigee:   055.9080 deg
Mean anomaly:     304.3699 deg
Mean motion:   14.81617181 rev/day
Decay rate:       1.13e-06 rev/day^2
Epoch rev:            4405
Checksum:              322

Satellite: CO-66
Catalog number: 32791
Epoch time:      09049.26704601
Element set:    0277
Inclination:      097.9606 deg
RA of node:       114.0517 deg
Eccentricity:    0.0017111
Arg of perigee:   058.8153 deg
Mean anomaly:     301.4735 deg
Mean motion:   14.81388023 rev/day
Decay rate:        8.8e-07 rev/day^2
Epoch rev:           04380
Checksum:              298

Satellite: RS-30
Catalog number: 32953
Epoch time:      09050.19190436
Element set:     235
Inclination:      082.5071 deg
RA of node:       329.9938 deg
Eccentricity:    0.0020213
Arg of perigee:   075.2101 deg
Mean anomaly:     285.1227 deg
Mean motion:   12.42999778 rev/day
Decay rate:        1.0e-07 rev/day^2
Epoch rev:            3373
Checksum:              285

/EX



_______________________________________________
Via the Keps mailing list courtesy of AMSAT-NA
http://amsat.org/mailman/listinfo/keps

--- ViaMAIL!/WC v1.60d
 * Origin: Chowdanet (401-724-4410) telnet://chowdanet.com  (1:323/120)